Tracking 19625 objects as of 26-May-2019
HD Live streaming from Space Station
objects crossing your sky now
Watch Starlink satellites crossing your sky!

TDRS 10

Track TDRS 10 now!
TDRS 10 is classified as:


NORAD ID: 27566
Int'l Code: 2002-055A
Perigee: 35,756.3 km
Apogee: 35,832.4 km
Inclination: 6.2 °
Period: 1,436.1 minutes
Semi major axis: 42165 km
RCS: 5.0118 m2 (large)
Launch date: December 5, 2002
Source: United States (US)
Launch site: AIR FORCE EASTERN TEST RANGE (AFETR)

Tracking and communications with space shuttle, other missions.
aabbcc
Your satellite tracking list
Your tracking list is empty




NASA's NSSDC Master Catalog

Two Line Element Set (TLE):
1 27566U 02055A   19145.73324132 +.00000088 +00000-0 +00000-0 0  9999
2 27566 006.2419 055.3543 0009023 299.1202 341.2406 01.00269686060367
Source of the keplerian elements: AFSPC